Weather History for Tekamah, NE

Change the Weather History Date:

Thursday, March 8, 2012

  Actual Average Record
Temperature  
Mean Temperature 38 °F -  
Max Temperature 52 °F 45 °F 78 °F (1977)
Min Temperature 23 °F 23 °F 1 °F (1951)
Degree Days  
Heating Degree Days 28    
Moisture  
Dew Point 17 °F    
Average Humidity 48    
Maximum Humidity 81    
Minimum Humidity 16    
Precipitation  
Precipitation 0.00 in - - ()
Sea Level Pressure  
Sea Level Pressure 30.31 in    
Wind  
Wind Speed 13 mph (WNW)    
Max Wind Speed 21 mph    
Max Gust Speed 28 mph    
Visibility 9 miles    
Events      
Averages and records for this station are not official NWS values.
T = Trace of Precipitation, MM = Missing Value Source: NWS Daily Summary

Daily Weather History Graph

Daily Weather History Graph

Search for Another Location

Airport:

Trip Planner

Search our weather history database for the weather conditions in past years. The results will help you decide how hot, cold, wet, or windy it might be!

Date:

Astronomy

Mar. 08, 2012 Rise Set
Actual Time 6:47 AM CST 6:23 PM CST
Civil Twilight 6:19 AM CST 6:51 PM CST
Nautical Twilight 5:47 AM CST 7:23 PM CST
Astronomical Twilight 5:15 AM CST 7:56 PM CST
Moon 7:14 PM CST (3/8) 6:31 AM CST (3/8)
Length of Visible Light 12h 32m
Length of Day
11h 36m
Full, 100% of the Moon is Illuminated
Mar 8
Full
Mar 14
Last Quarter
Mar 22
New
Mar 30
First Quarter
Apr 6
Full

Hourly Weather History & Observations

Time (CST) Temp. Windchill Dew Point Humidity Pressure Visibility Wind Dir Wind Speed Gust Speed Precip Events Conditions
12:36 AM 32.0 °F 21.6 °F 21.2 °F 64% 30.13 in 9.0 mi NW 15.0 mph 23.0 mph N/A   Scattered Clouds
12:54 AM 32.0 °F 20.8 °F 21.9 °F 66% 30.17 in 9.0 mi NNW 17.3 mph - N/A   Scattered Clouds
1:01 AM 32.0 °F 20.5 °F 21.2 °F 64% 30.16 in 9.0 mi NNW 18.4 mph - N/A   Mostly Cloudy
1:24 AM 32.0 °F 21.2 °F 21.2 °F 64% 30.18 in 10.0 mi NW 16.1 mph - N/A   Scattered Clouds
2:54 AM 28.0 °F 18.1 °F 21.0 °F 75% 30.17 in 7.0 mi NNW 11.5 mph - N/A   Clear
3:54 AM 25.0 °F 18.1 °F 19.0 °F 78% 30.24 in 6.0 mi WNW 5.8 mph - N/A   Haze
4:54 AM 24.1 °F 17.0 °F 19.0 °F 81% 30.30 in 6.0 mi West 5.8 mph - N/A   Haze
5:54 AM 25.0 °F - 19.0 °F 78% 30.30 in 6.0 mi Calm Calm - N/A   Haze
6:54 AM 23.0 °F - 17.1 °F 78% 30.31 in 6.0 mi Calm Calm - N/A   Haze
7:54 AM 30.0 °F 22.4 °F 21.0 °F 69% 30.33 in 10.0 mi NW 8.1 mph - N/A   Clear
8:54 AM 37.0 °F 28.5 °F 23.0 °F 57% 30.34 in 10.0 mi WNW 13.8 mph - N/A   Clear
9:54 AM 42.1 °F 33.9 °F 23.0 °F 47% 30.36 in 10.0 mi NNW 17.3 mph - N/A   Clear
10:54 AM 44.1 °F 37.4 °F 21.0 °F 40% 30.38 in 10.0 mi NNW 13.8 mph - N/A   Clear
11:54 AM 46.9 °F - 17.1 °F 30% 30.36 in 10.0 mi North 20.7 mph 27.6 mph N/A   Clear
12:54 PM 48.9 °F - 14.0 °F 25% 30.35 in 10.0 mi North 13.8 mph 26.5 mph N/A   Clear
1:54 PM 51.1 °F - 8.1 °F 18% 30.32 in 10.0 mi NW 16.1 mph 25.3 mph N/A   Clear
2:54 PM 51.1 °F - 9.0 °F 18% 30.33 in 10.0 mi NW 17.3 mph 23.0 mph N/A   Clear
3:54 PM 52.0 °F - 7.0 °F 16% 30.34 in 10.0 mi WNW 16.1 mph 21.9 mph N/A   Clear
4:54 PM 52.0 °F - 9.0 °F 18% 30.34 in 10.0 mi West 16.1 mph - N/A   Clear
5:54 PM 50.0 °F - 12.0 °F 22% 30.36 in 10.0 mi WNW 11.5 mph - N/A   Clear
6:54 PM 39.0 °F 34.0 °F 10.9 °F 32% 30.38 in 10.0 mi West 6.9 mph - N/A   Clear
7:54 PM 36.0 °F 29.6 °F 12.9 °F 39% 30.38 in 10.0 mi West 8.1 mph - N/A   Clear
8:54 PM 37.9 °F 30.9 °F 14.0 °F 38% 30.38 in 10.0 mi WSW 10.4 mph - N/A   Clear
9:54 PM 37.9 °F 30.5 °F 15.1 °F 39% 30.38 in 10.0 mi WSW 11.5 mph - N/A   Clear
10:54 PM 37.0 °F 28.9 °F 16.0 °F 42% 30.39 in 10.0 mi West 12.7 mph - N/A   Clear
11:54 PM 35.1 °F 27.9 °F 16.0 °F 46% 30.43 in 10.0 mi NW 9.2 mph - N/A   Clear